Total_Precipitation_Accumulation
0.85 1.17 1.69 2.36 2.82 2.98 2.96 3.00 2.97 3.00 3.05 3.02 3.07 3.31 3.50 3.53 3.48 3.57 3.61 3.46 3.36 3.40 3.52 3.53 3.48 3.24 3.05 2.93 2.87 2.78 2.59 2.33 2.13 2.11 2.04 1.84 1.65 1.61 1.54 1.48 1.46 1.36 1.32
0.87 1.24 1.65 2.07 2.44 2.74 2.87 2.96 2.90 3.09 3.32 3.63 4.02 4.34 4.57 4.53 4.37 4.28 4.20 4.04 3.92 3.84 3.77 3.76 3.57 3.34 3.20 2.99 2.80 2.72 2.60 2.41 2.25 2.21 2.27 2.02 1.83 1.59 1.43 1.45 1.39 1.31 1.26
0.92 1.20 1.45 1.72 2.03 2.38 2.63 2.79 3.00 3.40 3.83 4.30 4.98 5.44 5.35 5.03 4.88 4.62 4.51 4.27 3.97 3.88 3.87 3.65 3.46 3.26 3.08 2.94 2.75 2.66 2.60 2.41 2.30 2.23 2.33 2.17 1.97 1.75 1.60 1.44 1.32 1.29 1.28
0.96 1.09 1.29 1.52 1.74 2.14 2.54 2.85 3.21 3.72 4.32 4.75 5.19 5.50 5.53 5.32 5.10 4.67 4.31 3.92 3.55 3.32 3.23 3.16 2.97 2.86 2.74 2.62 2.47 2.44 2.40 2.29 2.13 2.07 1.92 1.83 1.76 1.72 1.61 1.46 1.32 1.29 1.30
0.85 0.96 1.08 1.27 1.57 1.96 2.41 2.77 3.11 3.69 4.24 4.75 5.09 5.28 5.38 5.28 4.96 4.33 3.75 3.37 3.05 2.81 2.59 2.41 2.33 2.32 2.25 2.07 1.90 1.87 1.86 1.81 1.76 1.75 1.65 1.57 1.52 1.51 1.47 1.44 1.36 1.28 1.19
0.82 0.86 0.98 1.12 1.43 1.76 2.17 2.47 2.77 3.46 4.11 4.67 5.05 5.26 5.27 5.00 4.43 3.82 3.30 2.97 2.72 2.49 2.28 2.14 1.98 1.88 1.76 1.61 1.45 1.37 1.39 1.45 1.48 1.49 1.45 1.33 1.30 1.31 1.35 1.30 1.25 1.20 1.15
0.79 0.81 0.96 1.04 1.28 1.59 1.87 2.19 2.55 3.02 3.53 3.97 4.23 4.38 4.38 4.16 3.84 3.47 3.04 2.68 2.46 2.24 1.99 1.72 1.56 1.46 1.39 1.31 1.24 1.15 1.13 1.20 1.25 1.23 1.21 1.20 1.14 1.13 1.19 1.24 1.22 1.17 1.09
0.85 0.87 0.98 1.04 1.11 1.31 1.58 1.93 2.26 2.57 2.81 3.00 3.21 3.20 3.15 3.09 2.94 2.62 2.28 2.01 1.75 1.59 1.41 1.22 1.15 1.10 1.08 1.06 1.05 0.99 0.94 0.98 1.09 1.13 1.16 1.18 1.16 1.18 1.22 1.26 1.32 1.36 1.24
0.87 0.90 0.98 0.99 1.07 1.19 1.39 1.60 1.75 1.94 2.00 1.97 1.99 2.05 2.09 2.08 1.97 1.81 1.55 1.27 1.06 0.94 0.85 0.79 0.79 0.73 0.75 0.80 0.84 0.87 0.88 0.91 0.92 0.96 0.99 1.04 1.09 1.13 1.12 1.17 1.26 1.40 1.42
0.88 0.94 0.99 1.05 1.12 1.15 1.32 1.43 1.41 1.39 1.41 1.43 1.42 1.41 1.44 1.46 1.45 1.35 1.21 1.06 0.90 0.76 0.66 0.63 0.61 0.55 0.54 0.57 0.64 0.70 0.76 0.85 0.85 0.82 0.82 0.85 0.90 1.06 1.15 1.21 1.28 1.37 1.45
0.89 0.99 0.98 0.95 0.96 0.95 0.99 1.03 1.06 1.10 1.09 1.07 1.09 1.10 1.07 1.03 1.00 1.03 1.00 0.90 0.78 0.68 0.61 0.54 0.53 0.52 0.49 0.48 0.52 0.55 0.59 0.68 0.72 0.67 0.68 0.74 0.80 0.89 0.96 1.07 1.19 1.34 1.47
0.95 0.93 0.88 0.81 0.79 0.82 0.85 0.84 0.85 0.87 0.90 0.91 0.88 0.90 0.83 0.77 0.76 0.76 0.75 0.69 0.66 0.64 0.61 0.57 0.56 0.52 0.47 0.45 0.46 0.47 0.46 0.51 0.56 0.59 0.61 0.60 0.62 0.72 0.79 0.88 0.99 1.11 1.22
1.12 1.01 0.91 0.81 0.76 0.76 0.77 0.72 0.70 0.68 0.65 0.67 0.69 0.74 0.72 0.68 0.69 0.64 0.61 0.63 0.62 0.59 0.55 0.54 0.53 0.49 0.48 0.48 0.47 0.44 0.43 0.42 0.44 0.48 0.54 0.57 0.61 0.69 0.75 0.83 0.88 0.95 1.01
1.13 1.00 0.94 0.85 0.80 0.74 0.68 0.65 0.61 0.58 0.55 0.52 0.51 0.57 0.60 0.58 0.58 0.59 0.55 0.52 0.51 0.51 0.44 0.40 0.42 0.45 0.43 0.38 0.36 0.36 0.38 0.39 0.39 0.38 0.41 0.46 0.54 0.62 0.72 0.78 0.85 0.93 1.02
1.17 1.11 1.02 0.92 0.82 0.78 0.70 0.63 0.59 0.53 0.49 0.50 0.52 0.53 0.55 0.52 0.54 0.55 0.53 0.46 0.41 0.38 0.36 0.34 0.36 0.36 0.32 0.28 0.28 0.29 0.30 0.34 0.36 0.37 0.37 0.37 0.42 0.52 0.57 0.64 0.77 0.93 1.07
1.19 1.12 1.03 0.95 0.87 0.84 0.80 0.73 0.67 0.59 0.55 0.58 0.59 0.56 0.55 0.54 0.56 0.54 0.51 0.44 0.40 0.37 0.34 0.36 0.34 0.28 0.21 0.23 0.24 0.24 0.30 0.35 0.40 0.46 0.43 0.34 0.33 0.36 0.41 0.49 0.60 0.74 0.93
1.34 1.28 1.17 1.06 0.99 0.92 0.84 0.80 0.74 0.67 0.63 0.63 0.60 0.56 0.50 0.48 0.47 0.43 0.45 0.44 0.42 0.38 0.35 0.35 0.34 0.30 0.21 0.16 0.17 0.19 0.25 0.37 0.45 0.49 0.48 0.38 0.31 0.38 0.45 0.46 0.49 0.57 0.72
1.48 1.37 1.28 1.20 1.13 1.03 0.94 0.85 0.75 0.67 0.62 0.59 0.54 0.46 0.43 0.44 0.43 0.43 0.44 0.41 0.43 0.44 0.39 0.35 0.35 0.35 0.20 0.14 0.16 0.19 0.30 0.40 0.42 0.40 0.42 0.47 0.51 0.42 0.41 0.47 0.62 0.77 0.84
1.43 1.35 1.26 1.22 1.15 1.04 0.94 0.82 0.72 0.59 0.53 0.51 0.46 0.39 0.35 0.35 0.37 0.38 0.41 0.41 0.44 0.47 0.40 0.34 0.37 0.37 0.27 0.19 0.19 0.22 0.33 0.40 0.38 0.33 0.32 0.37 0.45 0.42 0.46 0.61 0.85 1.04 1.19
1.24 1.22 1.19 1.14 1.07 0.94 0.81 0.73 0.69 0.60 0.48 0.42 0.37 0.33 0.32 0.34 0.38 0.40 0.41 0.38 0.41 0.47 0.39 0.32 0.34 0.32 0.26 0.19 0.21 0.25 0.31 0.41 0.40 0.40 0.39 0.42 0.44 0.45 0.58 0.73 1.00 1.23 1.34
1.15 1.09 1.03 0.99 0.91 0.80 0.70 0.65 0.61 0.54 0.37 0.28 0.26 0.29 0.31 0.32 0.32 0.40 0.43 0.41 0.40 0.43 0.42 0.37 0.34 0.28 0.19 0.17 0.21 0.22 0.25 0.35 0.43 0.45 0.50 0.52 0.53 0.51 0.63 0.81 1.00 1.21 1.27
1.09 1.00 0.92 0.81 0.70 0.60 0.58 0.56 0.47 0.35 0.25 0.23 0.26 0.28 0.28 0.23 0.24 0.37 0.41 0.41 0.46 0.43 0.41 0.40 0.35 0.28 0.22 0.16 0.14 0.14 0.17 0.27 0.44 0.55 0.58 0.57 0.56 0.59 0.74 0.88 1.09 1.29 1.40
0.91 0.80 0.70 0.61 0.52 0.48 0.48 0.47 0.37 0.26 0.21 0.26 0.30 0.29 0.25 0.24 0.24 0.30 0.33 0.35 0.42 0.41 0.36 0.35 0.33 0.28 0.24 0.17 0.10 0.10 0.12 0.19 0.31 0.48 0.64 0.63 0.58 0.74 1.03 1.20 1.32 1.47 1.53
0.73 0.62 0.55 0.53 0.49 0.42 0.39 0.34 0.26 0.24 0.27 0.33 0.32 0.29 0.30 0.30 0.24 0.24 0.22 0.23 0.26 0.27 0.31 0.31 0.31 0.29 0.27 0.18 0.14 0.16 0.18 0.20 0.26 0.40 0.59 0.72 0.76 0.92 1.20 1.42 1.52 1.57 1.47
0.57 0.50 0.48 0.46 0.41 0.35 0.31 0.26 0.23 0.24 0.31 0.31 0.26 0.24 0.24 0.24 0.25 0.19 0.13 0.11 0.11 0.10 0.16 0.23 0.25 0.27 0.23 0.16 0.16 0.18 0.20 0.23 0.28 0.36 0.53 0.73 0.83 1.03 1.24 1.38 1.39 1.33 1.23
0.40 0.37 0.35 0.33 0.30 0.27 0.24 0.22 0.20 0.19 0.25 0.28 0.24 0.21 0.18 0.16 0.15 0.15 0.13 0.08 0.06 0.06 0.08 0.12 0.15 0.16 0.16 0.14 0.13 0.15 0.19 0.24 0.31 0.39 0.61 0.79 0.89 1.04 1.16 1.24 1.20 1.11 1.02